Regional Weather Roundup
Issued by NWS Midland/Odessa, TX

Skip options and go directly to product.
Home | Oldest Version | Next Version | Current Version | All | Text Only | Save Text | Print | Product List | Glossary On

Skip product version selection by date and time.   
760
ASUS44 KMAF 041301
RWRMAF
MIDLAND AREA WEATHER ROUNDUP
NATIONAL WEATHER SERVICE MIDLAND TX
800 AM CDT MON MAY 04 2015

...IN SOUTHWEST TEXAS AND SOUTHEAST NEW MEXICO...

CITY           SKY/WX    TMP DP  RH WIND       PRES   REMARKS
ALPINE         CLEAR     55  52  90 CALM      30.05R
ANDREWS        PTSUNNY   59  56  92 CALM      29.99R
ARTESIA        CLOUDY    59  54  82 S6        29.99R
BIG SPRING     CLOUDY    67  60  79 SE14      29.98R
CARLSBAD       CLOUDY    61  53  75 NE5       29.94R
DRYDEN           N/A     69  65  86 E18G26    29.93R
FORT STOCKTON  SUNNY     65  61  87 S17G25    29.93R
GUAD PASS      NOT AVBL
HOBBS          SUNNY     57  57 100 VRB5      30.00R
MARFA          CLEAR     54  52  94 NE6       30.03R
MIDLAND AIRPK  CLOUDY    67  61  79 SE9       29.97R
MIDLAND INTL   CLOUDY    67  60  78 SE9       29.97R
ODESSA         CLOUDY    67  59  75 SE3       29.98R
PECOS          MOSUNNY   66  57  72 SE14      29.91S
PRESIDIO       FAIR      69  55  60 NE12G20   29.89R
SEMINOLE       PTSUNNY   58  54  87 SE5       30.00R
SNYDER         SUNNY     61  58  90 SE9       29.99R
WINK           CLOUDY    67  58  72 SE8       29.94S
$$
...OTHER STATIONS IN TEXAS...

CITY           SKY/WX    TMP DP  RH WIND       PRES   REMARKS
ABILENE        CLOUDY    65  60  84 S8        30.04R
AMARILLO       MOSUNNY   60  53  77 SE9       30.01R
AUSTIN         FOG       65  65 100 SE8       30.04R VSB 1
BROWNSVILLE    MOSUNNY   75  68  78 SE9       29.97R
CORPUS CHRISTI PTSUNNY   74  68  81 SE14      30.00R
DALLAS FTW     MOSUNNY   67  63  87 S13       30.06R
DEL RIO        CLOUDY    70  67  90 E9        29.95R
EL PASO        PTCLDY    66  47  50 N8        29.93R
HOUSTON INT    MOSUNNY   68  65  90 E6        30.08R
LUBBOCK        MOSUNNY   60  54  80 E5        30.01R
SAN ANGELO     MOSUNNY   68  62  81 SE8       29.98R
SAN ANTONIO    CLOUDY    69  65  86 SE12      30.02R
WACO           PTSUNNY   65  62  90 SE5       30.07R
WICHITA FALLS  NOT AVBL
$$
...OTHER LOCATIONS IN NEW MEXICO...

CITY           SKY/WX    TMP DP  RH WIND       PRES   REMARKS
ALAMAGORDO     MOCLDY    63  48  59 S8        29.95F
ALBUQUERQUE    MOCLDY    56  39  53 SE13      30.05R
CANNON AFB     NOT AVBL
CLOVIS         SUNNY     54  46  76 SE7       30.03R
HOLLOMAN AFB   NOT AVBL
ROSWELL        MOCLDY    57  49  74 CALM      29.97R
RUIDOSO        MOCLDY    46  45  93 N5        30.13F
SANTA FE       MOCLDY    51  40  65 NW7       30.07F
TRUTH OR CONSE PTCLDY    58  38  47 N5        29.99R
TUCUMCARI        N/A     59  52  77 CALM      30.00R
$$

USA.gov is the U.S. government's official web portal to all federal, state and local government web resources and services.